User: anonymous   Login
Location: Unspecified
(0.0000°N, 0.0000°E)
Time: 11:21:37
(UTC+00:00)
Language:

SO-50 - Orbit

View from above orbital plane
View from above orbital plane
View from above satellite
View from above satellite

Ground track
Ground track

The orbit data is extracted from the following two-line orbital elements,

1 27607U 02058C   18267.16885626 +.00000014 +00000-0 +22824-4 0  9990
2 27607 064.5545 147.4661 0074471 307.7614 051.6757 14.75481962847561
Epoch (UTC): 24 September 2018 04:03:09
Eccentricity: 0.0074471
inclination: 64.5545°
perigee height: 591 km
apogee height: 696 km
right ascension of ascending node: 147.4661°
argument of perigee: 307.7614°
revolutions per day: 14.75481962
mean anomaly at epoch: 51.6757°
orbit number at epoch: 84756

The dashed part of the orbit path shows where the satellite is in the earth's shadow,  

DLR